When you browse on this site, cookies collect data to enhance your experience and personalize the content and advertising you see.
Visit our Privacy Policy to learn more. By continuing to use the site, you agree to this use of cookies and data.
  • In Lithuania
  • List of Countries
  • For 7 days
  • Water Temperature
  • Weather Map
  • Weather Widgets
  • user-avatar
    Login

    Hourly Weather Melbourne

    Today, 25 August, Sunday

    Time Temperature Precipitation Wind Pressure Humidity
    00:00 +7°C° 0 mm 5 mps 761 mmHg 82%
    01:00 +6°C° 0 mm 4 mps 761 mmHg 84%
    02:00 +6°C° 0 mm 4 mps 762 mmHg 84%
    03:00 +6°C° 0 mm 4 mps 762 mmHg 84%
    04:00 +6°C° 0 mm 4 mps 762 mmHg 86%
    05:00 +5°C° 0 mm 3 mps 763 mmHg 85%
    06:00 +5°C° 0 mm 3 mps 763 mmHg 84%
    07:00 +6°C° 0 mm 2 mps 763 mmHg 84%
    08:00 +7°C° 0 mm 2 mps 764 mmHg 78%
    09:00 +9°C° 0 mm 2 mps 764 mmHg 72%
    10:00 +10°C° 0 mm 3 mps 764 mmHg 66%
    11:00 +11°C° 0 mm 3 mps 764 mmHg 60%
    12:00 +12°C° 0 mm 3 mps 764 mmHg 55%
    13:00 +14°C° 0 mm 2 mps 764 mmHg 49%
    14:00 +13°C° 0 mm 3 mps 764 mmHg 51%
    15:00 +12°C° 0 mm 3 mps 764 mmHg 53%
    16:00 +12°C° 0 mm 3 mps 764 mmHg 56%
    17:00 +11°C° 0 mm 3 mps 764 mmHg 59%
    18:00 +10°C° 0 mm 2 mps 765 mmHg 62%
    19:00 +9°C° 0 mm 2 mps 765 mmHg 66%
    20:00 +9°C° 0 mm 2 mps 766 mmHg 70%
    21:00 +8°C° 0 mm 2 mps 766 mmHg 74%
    22:00 +8°C° 0 mm 1 mps 766 mmHg 79%
    23:00 +7°C° 0 mm 2 mps 767 mmHg 80%

    Tomorrow, 26 August, Monday

    Time Temperature Precipitation Wind Pressure Humidity
    00:00 +6°C° 0 mm 2 mps 767 mmHg 81%
    01:00 +6°C° 0 mm 2 mps 767 mmHg 82%
    02:00 +6°C° 0 mm 2 mps 767 mmHg 84%
    03:00 +6°C° 0 mm 2 mps 767 mmHg 85%
    04:00 +5°C° 0 mm 2 mps 766 mmHg 87%
    05:00 +6°C° 0 mm 1 mps 767 mmHg 87%
    06:00 +6°C° 0 mm 1 mps 767 mmHg 88%
    07:00 +6°C° 0 mm 1 mps 767 mmHg 89%
    08:00 +8°C° 0 mm 1 mps 767 mmHg 82%
    09:00 +9°C° 0 mm 2 mps 767 mmHg 75%
    10:00 +12°C° 0 mm 2 mps 767 mmHg 68%
    11:00 +13°C° 0 mm 2 mps 767 mmHg 62%
    12:00 +14°C° 0 mm 2 mps 767 mmHg 56%
    13:00 +15°C° 0 mm 2 mps 766 mmHg 50%
    14:00 +15°C° 0 mm 2 mps 766 mmHg 51%
    15:00 +15°C° 0 mm 2 mps 766 mmHg 52%
    16:00 +14°C° 0 mm 1 mps 765 mmHg 53%
    17:00 +13°C° 0 mm 1 mps 766 mmHg 59%
    18:00 +12°C° 0 mm 1 mps 766 mmHg 66%
    19:00 +9°C° 0 mm 0 mps 767 mmHg 72%
    20:00 +10°C° 0 mm 1 mps 767 mmHg 75%
    21:00 +9°C° 0 mm 1 mps 767 mmHg 78%
    22:00 +9°C° 0 mm 1 mps 767 mmHg 81%
    23:00 +7°C° 0 mm 2 mps 767 mmHg 83%

    Day after tomorrow, 27 August, Tuesday

    Time Temperature Precipitation Wind Pressure Humidity
    00:00 +7°C° 0 mm 2 mps 767 mmHg 85%
    01:00 +7°C° 0 mm 2 mps 767 mmHg 87%
    02:00 +7°C° 0 mm 2 mps 767 mmHg 88%
    03:00 +6°C° 0 mm 2 mps 767 mmHg 88%
    04:00 +7°C° 0 mm 1 mps 766 mmHg 89%
    05:00 +7°C° 0 mm 1 mps 767 mmHg 89%
    06:00 +7°C° 0 mm 1 mps 767 mmHg 89%
    07:00 +7°C° 0 mm 1 mps 767 mmHg 89%
    08:00 +9°C° 0 mm 1 mps 767 mmHg 82%
    09:00 +10°C° 0 mm 2 mps 767 mmHg 74%
    10:00 +12°C° 0 mm 2 mps 767 mmHg 67%
    11:00 +13°C° 0 mm 2 mps 767 mmHg 61%
    12:00 +15°C° 0 mm 1 mps 766 mmHg 55%
    13:00 +16°C° 0 mm 1 mps 765 mmHg 50%
    14:00 +16°C° 0 mm 1 mps 765 mmHg 50%
    15:00 +16°C° 0 mm 1 mps 765 mmHg 51%
    16:00 +16°C° 0 mm 2 mps 764 mmHg 51%
    17:00 +15°C° 0 mm 2 mps 765 mmHg 57%
    18:00 +13°C° 0 mm 2 mps 765 mmHg 64%
    19:00 +12°C° 0 mm 2 mps 765 mmHg 70%
    20:00 +12°C° 0 mm 2 mps 765 mmHg 70%
    21:00 +10°C° 0 mm 2 mps 765 mmHg 71%
    22:00 +10°C° 0 mm 3 mps 765 mmHg 71%
    23:00 +9°C° 0 mm 3 mps 765 mmHg 74%

    28 August, Wednesday

    Time Temperature Precipitation Wind Pressure Humidity
    00:00 +8°C° 0 mm 3 mps 765 mmHg 76%
    01:00 +8°C° 0 mm 3 mps 764 mmHg 79%
    02:00 +8°C° 0 mm 3 mps 764 mmHg 79%
    03:00 +7°C° 0 mm 3 mps 764 mmHg 79%
    04:00 +7°C° 0 mm 3 mps 763 mmHg 80%
    05:00 +7°C° 0 mm 3 mps 763 mmHg 79%
    06:00 +6°C° 0 mm 4 mps 763 mmHg 79%
    07:00 +6°C° 0 mm 4 mps 763 mmHg 78%
    08:00 +7°C° 0 mm 4 mps 763 mmHg 73%
    09:00 +9°C° 0 mm 5 mps 763 mmHg 68%
    10:00 +10°C° 0 mm 5 mps 762 mmHg 63%
    11:00 +11°C° 0.2 mm 6 mps 762 mmHg 63%
    12:00 +11°C° 0.2 mm 6 mps 762 mmHg 62%
    13:00 +12°C° 0.2 mm 7 mps 761 mmHg 62%
    14:00 +10°C° 2.5 mm 6 mps 762 mmHg 70%
    15:00 +8°C° 2.5 mm 5 mps 762 mmHg 77%
    16:00 +6°C° 2.5 mm 4 mps 762 mmHg 85%
    17:00 +6°C° 0.5 mm 4 mps 763 mmHg 81%
    18:00 +6°C° 0.5 mm 4 mps 764 mmHg 78%
    19:00 +6°C° 0.5 mm 4 mps 765 mmHg 74%
    20:00 +6°C° 0.1 mm 4 mps 765 mmHg 74%
    21:00 +5°C° 0.1 mm 4 mps 765 mmHg 75%
    22:00 +5°C° 0.1 mm 4 mps 766 mmHg 75%
    23:00 +4°C° 0.1 mm 4 mps 766 mmHg 76%

    29 August, Thursday

    Time Temperature Precipitation Wind Pressure Humidity
    00:00 +4°C° 0.1 mm 4 mps 766 mmHg 76%
    01:00 +3°C° 0.1 mm 5 mps 767 mmHg 76%
    02:00 +3°C° 0.1 mm 5 mps 767 mmHg 78%
    03:00 +3°C° 0.1 mm 5 mps 767 mmHg 80%
    04:00 +5°C° 0.1 mm 5 mps 767 mmHg 81%
    05:00 +3°C° 0.1 mm 5 mps 767 mmHg 81%
    06:00 +3°C° 0.1 mm 5 mps 768 mmHg 81%
    07:00 +3°C° 0.1 mm 5 mps 768 mmHg 81%
    08:00 +5°C° 0 mm 5 mps 769 mmHg 76%
    09:00 +6°C° 0 mm 5 mps 769 mmHg 71%
    10:00 +7°C° 0 mm 5 mps 769 mmHg 66%
    11:00 +8°C° 0 mm 5 mps 769 mmHg 62%
    12:00 +8°C° 0 mm 5 mps 769 mmHg 57%
    13:00 +9°C° 0 mm 5 mps 769 mmHg 53%
    14:00 +9°C° 0 mm 5 mps 769 mmHg 54%
    15:00 +9°C° 0 mm 5 mps 769 mmHg 55%
    16:00 +9°C° 0 mm 5 mps 769 mmHg 57%
    17:00 +8°C° 0 mm 4 mps 769 mmHg 60%
    18:00 +7°C° 0 mm 4 mps 770 mmHg 63%
    19:00 +6°C° 0 mm 4 mps 770 mmHg 66%
    20:00 +5°C° 0 mm 3 mps 771 mmHg 68%
    21:00 +5°C° 0 mm 3 mps 771 mmHg 71%
    22:00 +4°C° 0 mm 3 mps 771 mmHg 73%
    23:00 +4°C° 0 mm 3 mps 771 mmHg 75%

    30 August, Friday

    Time Temperature Precipitation Wind Pressure Humidity
    00:00 +3°C° 0 mm 3 mps 771 mmHg 78%
    01:00 +4°C° 0 mm 2 mps 770 mmHg 80%
    02:00 +3°C° 0 mm 2 mps 770 mmHg 82%
    03:00 +3°C° 0 mm 2 mps 770 mmHg 83%
    04:00 +3°C° 0 mm 2 mps 770 mmHg 85%
    05:00 +3°C° 0 mm 2 mps 770 mmHg 86%
    06:00 +2°C° 0 mm 2 mps 770 mmHg 86%
    07:00 +2°C° 0 mm 2 mps 770 mmHg 87%
    08:00 +6°C° 0 mm 1 mps 770 mmHg 77%
    09:00 +8°C° 0 mm 1 mps 770 mmHg 68%
    10:00 +10°C° 0 mm 1 mps 769 mmHg 58%
    11:00 +12°C° 0 mm 1 mps 769 mmHg 52%
    12:00 +14°C° 0 mm 1 mps 768 mmHg 47%
    13:00 +16°C° 0 mm 1 mps 768 mmHg 41%
    14:00 +15°C° 0 mm 1 mps 767 mmHg 42%
    15:00 +15°C° 0 mm 1 mps 767 mmHg 43%
    16:00 +15°C° 0 mm 1 mps 766 mmHg 43%
    17:00 +14°C° 0 mm 1 mps 767 mmHg 50%
    18:00 +11°C° 0 mm 0 mps 767 mmHg 56%
    19:00 +9°C° 0 mm 0 mps 767 mmHg 63%
    20:00 +8°C° 0 mm 0 mps 767 mmHg 66%
    21:00 +9°C° 0 mm 1 mps 768 mmHg 68%
    22:00 +8°C° 0 mm 1 mps 768 mmHg 71%
    23:00 +8°C° 0 mm 1 mps 767 mmHg 70%
    Show more